Location: Newark
(48.6461°N, 4.3644°W)
Time: 08:49:36
(UTC+00:00)

Altair - Pass Details

Date: 18 January 2021
Orbit: 1501 x 1682 km, 47.2° (Epoch: 24 February)

Event Time Altitude Azimuth Distance (km) Brightness Sun altitude
Rises 05:26:22 0° 195° (SSW) 4,870 10.0 -25.3°
Reaches altitude 10° 05:30:09 10° 183° (S) 3,906 9.6 -24.6°
Maximum altitude 05:37:56 26° 132° (SE) 2,847 9.4 -23.4°
Drops below altitude 10° 05:45:46 10° 81° (E) 3,947 10.7 -22.1°
Sets 05:49:35 0° 70° (ENE) 4,931 11.2 -21.5°
